User: anonymous   Login
Location: Springfield
(37.2150°N, 93.2980°W)
Time: 06:55:43
(UTC-05:00)
Language:

Iridium 62 - Orbit

View from above orbital plane
View from above orbital plane
View from above satellite
View from above satellite

Ground track
Ground track

The orbit data is extracted from the following two-line orbital elements,

1 25285U 98021A   14297.43134717  .00000332  00000-0  11154-3 0  9808
2 25285 086.3943 267.9805 0002127 100.8213 259.3222 14.34216224866454
Epoch (UTC): 24 October 2014 10:21:08
Eccentricity: 0.0002127
inclination: 86.3943°
perigee height: 776 km
apogee height: 779 km
right ascension of ascending node: 267.9805°
argument of perigee: 100.8213°
revolutions per day: 14.34216224
mean anomaly at epoch: 259.3222°
orbit number at epoch: 86645

The dashed part of the orbit path shows where the satellite is in the earth's shadow,  

DLR